period_start,C,m1,H,J0,J1,J2,J3,J4,J5,JA,JB,JC,JD,JJ,JK,JN,#
2015-01-10 00:00:36,0.17,5.96,0.00,21.53,26.37,29.38,4.91,27.46,1028.83,2031.98,1754.53,2033.12,2200.74,349.73,353.36,26.24,0000 0000 0000 0000 000000
2015-01-10 00:05:38,0.18,5.97,0.00,21.51,26.37,29.36,4.90,27.48,1028.80,2031.99,1753.57,2032.42,2199.96,350.36,353.94,26.27,0000 0000 0000 0000 000000
2015-01-10 00:10:39,0.12,5.97,0.00,21.56,26.35,29.33,4.86,27.54,1028.79,2031.98,1752.71,2031.89,2199.10,349.75,353.23,26.30,0000 0000 0000 0000 000000
2015-01-10 00:15:40,0.20,5.98,0.00,21.48,26.35,29.33,4.93,27.56,1028.82,2031.98,1751.78,2031.06,2198.34,350.07,353.32,26.33,0000 0000 0000 0000 000000
2015-01-10 00:20:42,0.17,5.98,0.00,21.50,26.35,29.27,4.82,27.63,1028.82,2031.99,1750.88,2030.24,2197.70,349.22,352.82,26.36,0000 0000 0000 0000 000000
2015-01-10 00:25:43,0.17,5.99,0.00,21.45,26.35,29.34,4.88,27.52,1028.79,2031.99,1749.89,2029.66,2196.86,349.87,353.62,26.39,0000 0000 0000 0000 000000
2015-01-10 00:30:44,0.14,5.99,0.00,21.46,26.34,29.31,4.82,27.43,1028.81,2031.99,1749.01,2029.00,2196.06,350.09,353.68,26.42,0000 0000 0000 0000 000000
2015-01-10 00:35:45,0.21,6.00,0.00,21.45,26.32,29.33,4.90,27.36,1028.81,2031.99,1748.10,2028.23,2195.32,349.69,353.47,26.45,0000 0000 0000 0000 000000
2015-01-10 00:40:46,0.19,6.00,0.00,21.47,26.32,29.33,4.90,27.63,1028.81,2031.99,1747.15,2027.55,2194.53,349.90,353.44,26.47,0000 0000 0000 0000 000000
2015-01-10 00:45:47,0.13,6.01,0.00,21.45,26.32,29.35,4.86,27.34,1028.77,2031.99,1746.18,2026.90,2193.81,349.94,353.54,26.50,0000 0000 0000 0000 000000
2015-01-10 00:50:49,0.19,6.01,0.00,21.43,26.31,29.36,4.90,27.52,1028.73,2031.99,1745.24,2026.07,2193.01,350.07,353.76,26.53,0000 0000 0000 0000 000000
2015-01-10 00:55:50,0.21,6.02,0.00,21.45,26.30,29.34,4.86,27.43,1028.77,2031.99,1744.29,2025.31,2192.14,349.87,353.31,26.56,0000 0000 0000 0000 000000
2015-01-10 01:00:51,0.16,6.02,0.00,21.47,26.30,29.31,4.89,27.39,1028.82,2031.99,1743.42,2024.75,2191.40,350.13,353.76,26.59,0000 0000 0000 0000 000000
2015-01-10 01:05:53,0.16,6.03,0.00,21.42,26.30,29.29,4.89,27.42,1028.82,2031.99,1742.49,2024.03,2190.73,350.43,354.37,26.62,0000 0000 0000 0000 000000
2015-01-10 01:10:54,0.18,6.03,0.00,21.42,26.29,29.25,4.89,27.42,1028.82,2031.99,1741.60,2023.24,2189.97,350.01,353.71,26.65,0000 0000 0000 0000 000000
2015-01-10 01:15:55,0.14,6.04,0.00,21.41,26.28,29.24,4.88,27.52,1028.82,2031.99,1740.81,2022.72,2189.18,349.61,353.48,26.68,0000 0000 0000 0000 000000
2015-01-10 01:20:57,0.15,6.04,0.00,21.42,26.27,29.19,4.87,27.52,1028.82,2032.00,1739.94,2022.00,2188.50,350.03,353.89,26.71,0000 0000 0000 0000 000000
2015-01-10 01:25:58,0.20,6.05,0.00,21.41,26.27,29.19,4.93,27.61,1028.82,2032.00,1738.96,2021.16,2187.73,350.36,354.08,26.74,0000 0000 0000 0000 000000
2015-01-10 01:30:59,0.16,6.05,0.00,21.40,26.27,29.16,4.84,27.57,1028.82,2032.00,1738.06,2020.61,2186.99,349.29,353.02,26.77,0000 0000 0000 0000 000000
2015-01-10 01:36:01,0.16,6.06,0.00,21.42,26.27,29.15,4.86,27.58,1028.82,2032.00,1737.16,2019.93,2186.14,349.55,352.97,26.80,0000 0000 0000 0000 000000
2015-01-10 01:41:02,0.21,6.07,0.00,21.45,26.26,29.09,4.80,27.72,1028.82,2032.00,1736.20,2019.09,2185.26,349.85,353.71,26.83,0000 0000 0000 0000 000000
2015-01-10 01:46:03,0.19,6.07,0.00,21.44,26.25,29.08,4.89,27.60,1028.71,2032.00,1735.30,2018.43,2184.67,350.30,353.95,26.86,0000 0000 0000 0000 000000
2015-01-10 01:51:04,0.15,6.08,0.00,21.42,26.25,29.08,4.87,27.46,1028.72,2032.00,1734.40,2017.75,2183.92,349.66,353.27,26.88,0000 0000 0000 0000 000000
2015-01-10 01:56:05,0.17,6.08,0.00,21.46,26.25,29.07,4.92,27.71,1028.74,2032.00,1733.49,2017.00,2183.04,350.24,353.88,26.91,0000 0000 0000 0000 000000
2015-01-10 02:01:07,0.22,6.09,0.00,21.43,26.25,29.10,4.92,27.52,1028.78,2032.00,1732.49,2016.15,2182.14,349.78,353.54,26.94,0000 0000 0000 0000 000000
2015-01-10 02:06:08,0.19,6.09,0.00,21.44,26.25,29.13,4.87,27.63,1028.71,2032.01,1731.57,2015.57,2181.32,350.19,353.98,26.97,0000 0000 0000 0000 000000
2015-01-10 02:11:09,0.17,6.10,0.00,21.43,26.25,29.11,4.88,27.55,1028.77,2032.00,1730.59,2014.79,2180.63,349.73,353.43,27.00,0000 0000 0000 0000 000000
2015-01-10 02:16:10,0.17,6.10,0.00,21.41,26.25,29.11,4.89,27.55,1028.52,2032.01,1729.59,2014.01,2179.86,350.22,353.84,27.03,0000 0000 0000 0000 000000
2015-01-10 02:21:12,0.19,6.11,0.00,21.41,26.25,29.13,4.89,27.52,1028.71,2032.01,1728.69,2013.20,2179.04,349.96,353.73,27.06,0000 0000 0000 0000 000000
2015-01-10 02:26:13,0.17,6.11,0.00,21.37,26.25,29.20,4.94,27.54,1028.81,2032.01,1727.82,2012.57,2178.20,350.43,354.12,27.09,0000 0000 0000 0000 000000
2015-01-10 02:31:14,0.12,6.12,0.00,21.35,26.25,29.22,4.88,27.49,1028.82,2032.01,1727.01,2011.98,2177.53,350.13,353.79,27.12,0000 0000 0000 0000 000000
2015-01-10 02:36:15,0.19,6.12,0.00,21.36,26.25,29.15,4.87,27.54,1028.82,2032.01,1726.17,2011.17,2176.80,349.47,353.64,27.15,0000 0000 0000 0000 000000
2015-01-10 02:41:17,0.19,6.13,0.00,21.36,26.23,29.23,4.80,27.73,1028.81,2032.02,1725.22,2010.48,2175.98,349.91,353.71,27.18,0000 0000 0000 0000 000000
2015-01-10 02:46:18,0.15,6.13,0.00,21.36,26.23,29.23,4.89,27.73,1028.80,2032.04,1724.42,2009.92,2175.13,349.47,353.22,27.21,0000 0000 0000 0000 000000
2015-01-10 02:51:20,0.18,6.14,0.00,21.38,26.22,29.25,4.78,27.52,1028.78,2032.02,1723.56,2009.09,2174.60,349.49,353.48,27.24,0000 0000 0000 0000 000000
2015-01-10 02:56:21,0.18,6.14,0.00,21.35,26.22,29.24,4.84,27.57,1028.79,2032.04,1722.62,2008.44,2173.84,349.57,353.29,27.27,0000 0000 0000 0000 000000
2015-01-10 03:01:22,0.13,6.15,0.00,21.34,26.22,29.22,4.89,27.59,1028.81,2032.04,1721.72,2007.87,2173.04,349.90,353.84,27.29,0000 0000 0000 0000 000000
2015-01-10 03:06:23,0.21,6.16,0.00,21.35,26.22,29.26,4.87,27.36,1028.82,2032.07,1720.77,2007.04,2172.23,349.99,353.82,27.32,0000 0000 0000 0000 000000
2015-01-10 03:11:25,0.21,6.16,0.00,21.35,26.22,29.19,4.83,27.46,1028.82,2032.08,1719.76,2006.23,2171.46,349.81,354.11,27.35,0000 0000 0000 0000 000000
2015-01-10 03:16:26,0.22,6.17,0.00,21.37,26.20,29.16,4.85,27.52,1028.81,2032.10,1718.73,2005.52,2170.61,349.23,353.36,27.38,0000 0000 0000 0000 000000
2015-01-10 03:21:28,0.14,6.17,0.00,21.37,26.20,29.15,4.93,27.49,1028.81,2032.10,1717.79,2004.82,2169.80,350.02,353.88,27.41,0000 0000 0000 0000 000000
2015-01-10 03:26:29,0.20,6.18,0.00,21.34,26.20,29.19,4.86,27.41,1028.80,2032.08,1716.75,2003.98,2168.94,349.80,353.75,27.44,0000 0000 0000 0000 000000
2015-01-10 03:31:30,0.22,6.18,0.00,21.37,26.20,29.17,4.94,27.53,1028.83,2032.07,1715.69,2003.14,2168.04,350.38,354.37,27.47,0000 0000 0000 0000 000000
2015-01-10 03:36:31,0.24,6.19,0.00,21.39,26.20,29.14,4.92,27.46,1028.83,2032.12,1714.59,2002.32,2167.13,350.02,353.93,27.50,0000 0000 0000 0000 000000
2015-01-10 03:41:32,0.21,6.20,0.00,21.38,26.19,29.15,4.86,27.57,1028.83,2032.15,1713.53,2001.52,2166.18,349.99,353.84,27.53,0000 0000 0000 0000 000000
2015-01-10 03:46:34,0.18,6.20,0.00,21.35,26.18,29.15,4.86,27.52,1028.83,2032.28,1712.73,2000.94,2165.51,349.94,353.90,27.56,0000 0000 0000 0000 000000
2015-01-10 03:51:35,0.13,6.21,0.00,21.36,26.17,29.12,4.90,27.57,1028.83,2032.24,1711.83,2000.12,2164.73,350.15,353.92,27.59,0000 0000 0000 0000 000000
2015-01-10 03:56:36,0.21,6.21,0.00,21.35,26.17,29.15,4.93,27.62,1028.83,2032.32,1710.90,1999.53,2163.98,350.13,354.12,27.62,0000 0000 0000 0000 000000
2015-01-10 04:01:38,0.14,6.22,0.00,21.35,26.17,29.10,4.84,27.62,1028.83,2032.27,1709.97,1998.81,2163.12,349.99,353.81,27.65,0000 0000 0000 0000 000000
2015-01-10 04:06:39,0.26,6.22,0.00,21.35,26.17,29.16,5.00,27.78,1028.83,2032.43,1709.07,1998.04,2162.39,350.71,354.13,27.68,0000 0000 0000 0000 000000
2015-01-10 04:11:40,0.14,6.23,0.00,21.34,26.16,29.16,4.89,27.59,1028.83,2032.46,1708.18,1997.34,2161.70,350.09,353.98,27.70,0000 0000 0000 0000 000000
2015-01-10 04:16:41,0.23,6.23,0.00,21.36,26.15,29.12,4.82,27.58,1028.83,2032.48,1707.18,1996.74,2160.97,349.98,353.75,27.73,0000 0000 0000 0000 000000
2015-01-10 04:21:43,0.17,6.24,0.00,21.34,26.15,29.10,4.91,27.60,1028.83,2032.69,1706.37,1996.02,2160.14,350.05,353.85,27.76,0000 0000 0000 0000 000000
2015-01-10 04:26:43,0.23,6.25,0.00,21.32,26.15,29.14,4.83,27.49,1028.83,2032.80,1705.50,1995.29,2159.45,349.95,353.95,27.79,0000 0000 0000 0000 000000
2015-01-10 04:31:45,0.15,6.25,0.00,21.32,26.15,29.14,4.96,27.63,1028.84,2032.88,1704.70,1994.77,2158.77,350.33,354.36,27.82,0000 0000 0000 0000 000000
2015-01-10 04:36:46,0.15,6.26,0.00,21.31,26.14,29.12,4.97,27.68,1028.84,2032.95,1703.85,1994.02,2157.99,349.95,353.71,27.85,0000 0000 0000 0000 000000
2015-01-10 04:41:47,0.15,6.26,0.00,21.30,26.12,29.12,4.91,27.77,1028.83,2032.67,1702.92,1993.17,2157.12,350.04,353.88,27.88,0000 0000 0000 0000 000000
2015-01-10 04:46:48,0.20,6.27,0.00,21.30,26.12,29.09,4.86,27.65,1028.83,2032.86,1702.02,1992.71,2156.57,349.65,353.50,27.91,0000 0000 0000 0000 000000
2015-01-10 04:51:50,0.12,6.27,0.00,21.29,26.12,29.04,4.93,27.65,1028.83,2032.80,1701.14,1992.02,2155.83,349.92,353.69,27.94,0000 0000 0000 0000 000000
2015-01-10 04:56:51,0.25,6.28,0.00,21.29,26.12,29.04,4.87,27.61,1028.90,2032.93,1700.29,1991.40,2155.05,349.79,353.62,27.97,0000 0000 0000 0000 000000
2015-01-10 05:01:52,0.14,6.28,0.00,21.28,26.11,29.05,5.00,27.59,1029.28,2032.97,1699.53,1990.85,2154.48,349.83,353.93,28.00,0000 0000 0000 0000 000000
2015-01-10 05:06:53,0.15,6.29,0.00,21.26,26.10,29.06,4.90,27.69,1029.31,2032.96,1698.65,1990.06,2153.87,350.41,354.52,28.03,0000 0000 0000 0000 000000
2015-01-10 05:11:54,0.17,6.29,0.00,21.26,26.10,29.01,4.83,27.77,1029.31,2032.98,1697.85,1989.49,2153.06,349.73,353.93,28.06,0000 0000 0000 0000 000000
2015-01-10 05:16:56,0.13,6.30,0.00,21.26,26.10,29.07,4.85,27.64,1029.31,2032.99,1697.01,1988.97,2152.33,349.50,353.62,28.09,0000 0000 0000 0000 000000
2015-01-10 05:21:57,0.18,6.30,0.00,21.25,26.09,29.01,4.89,27.67,1029.31,2032.99,1696.14,1988.21,2151.85,350.18,354.25,28.11,0000 0000 0000 0000 000000
2015-01-10 05:26:58,0.16,6.31,0.00,21.24,26.07,29.08,4.85,27.69,1029.31,2032.98,1695.40,1987.72,2151.05,349.71,353.87,28.14,0000 0000 0000 0000 000000
2015-01-10 05:31:59,0.16,6.31,0.00,21.20,26.07,29.09,4.98,27.79,1029.32,2032.98,1694.58,1987.03,2150.33,350.50,354.58,28.17,0000 0000 0000 0000 000000
2015-01-10 05:37:00,0.16,6.32,0.00,21.20,26.07,29.09,4.87,27.80,1029.62,2032.99,1693.75,1986.38,2149.76,349.53,353.72,28.20,0000 0000 0000 0000 000000
2015-01-10 05:42:02,0.11,6.32,0.00,21.19,26.05,29.07,4.88,27.63,1029.80,2032.99,1692.93,1985.86,2149.02,349.76,354.15,28.23,0000 0000 0000 0000 000000
2015-01-10 05:47:03,0.19,6.33,0.00,21.19,26.05,29.11,4.92,27.50,1029.81,2032.99,1692.08,1985.09,2148.30,350.27,354.64,28.26,0000 0000 0000 0000 000000
2015-01-10 05:52:04,0.19,6.33,0.00,21.16,26.04,29.12,4.91,27.73,1029.80,2032.99,1691.18,1984.57,2147.64,350.14,354.65,28.29,0000 0000 0000 0000 000000
2015-01-10 05:57:05,0.12,6.34,0.00,21.13,26.02,29.11,4.86,27.77,1029.79,2032.99,1690.36,1983.99,2146.99,349.85,354.30,28.32,0000 0000 0000 0000 000000
2015-01-10 06:02:07,0.20,6.34,0.00,21.14,26.02,29.07,4.83,27.83,1029.75,2032.99,1689.53,1983.35,2146.23,350.36,354.61,28.35,0000 0000 0000 0000 000000
2015-01-10 06:07:08,0.08,6.34,0.00,21.10,26.01,29.08,4.91,27.84,1029.69,2033.00,1688.86,1982.98,2145.70,350.15,354.35,28.38,0000 0000 0000 0000 000000
2015-01-10 06:12:09,0.18,6.35,0.00,21.13,26.00,29.13,4.94,27.59,1029.72,2033.00,1688.02,1982.19,2145.00,349.85,354.10,28.41,0000 0000 0000 0000 000000
2015-01-10 06:17:10,0.16,6.36,0.00,21.09,25.99,29.11,4.93,27.68,1029.74,2033.00,1687.17,1981.79,2144.18,350.28,354.69,28.44,0000 0000 0000 0000 000000
2015-01-10 06:22:11,0.16,6.36,0.00,21.07,25.97,29.05,4.91,27.77,1029.79,2033.01,1686.51,1981.06,2143.74,350.33,354.94,28.47,0000 0000 0000 0000 000000
2015-01-10 06:27:12,0.13,6.36,0.00,21.11,25.97,29.03,4.88,27.77,1029.80,2033.03,1685.83,1980.63,2143.02,349.50,353.95,28.50,0000 0000 0000 0000 000000
2015-01-10 06:32:14,0.17,6.37,0.00,21.03,25.96,29.05,4.96,27.97,1029.65,2033.05,1684.91,1980.00,2142.29,350.13,354.65,28.52,0000 0000 0000 0000 000000
2015-01-10 06:37:15,0.17,6.37,0.00,21.04,25.95,29.07,4.84,28.02,1029.39,2033.03,1684.00,1979.31,2141.77,349.50,353.87,28.55,0000 0000 0000 0000 000000
2015-01-10 06:42:16,0.15,6.38,0.00,21.02,25.93,29.05,4.98,28.12,1029.33,2033.05,1683.10,1978.81,2141.03,350.55,354.52,28.58,0000 0000 0000 0000 000000
2015-01-10 06:47:18,0.21,6.39,0.00,20.99,25.92,29.08,4.91,27.92,1029.32,2033.21,1682.34,1978.05,2140.36,350.09,354.71,28.61,0000 0000 0000 0000 000000
2015-01-10 06:52:19,0.26,6.39,0.00,20.96,25.91,29.09,4.94,27.84,1029.32,2033.44,1681.32,1977.41,2139.88,350.18,354.60,28.64,0000 0000 0000 0000 000000
2015-01-10 06:57:21,0.17,6.40,0.00,20.93,25.90,29.03,4.90,27.78,1029.50,2033.83,1680.68,1976.99,2139.06,350.63,355.05,28.67,0000 0000 0000 0000 000000
2015-01-10 07:02:22,0.18,6.40,0.00,20.95,25.88,29.04,4.92,27.64,1029.37,2033.91,1680.00,1976.27,2138.38,349.94,354.45,28.70,0000 0000 0000 0000 000000
2015-01-10 07:07:23,0.12,6.41,0.00,20.93,25.87,29.00,4.89,27.59,1029.35,2033.97,1679.19,1975.96,2137.91,349.79,354.34,28.73,0000 0000 0000 0000 000000
2015-01-10 07:12:25,0.21,6.41,0.00,20.93,25.85,29.04,4.84,27.53,1029.35,2033.99,1678.38,1975.18,2137.11,350.20,354.56,28.76,0000 0000 0000 0000 000000
2015-01-10 07:17:26,0.18,6.42,0.00,20.92,25.85,28.94,4.92,27.64,1029.32,2033.98,1677.52,1974.65,2136.53,350.04,354.69,28.79,0000 0000 0000 0000 000000
2015-01-10 07:22:27,0.09,6.42,0.00,20.88,25.82,28.91,4.92,27.67,1029.31,2033.99,1676.81,1974.01,2135.92,350.00,354.61,28.82,0000 0000 0000 0000 000000
2015-01-10 07:27:28,0.18,6.43,0.00,20.88,25.81,28.88,4.88,27.82,1029.33,2033.99,1676.03,1973.39,2135.12,349.82,354.25,28.85,0000 0000 0000 0000 000000
2015-01-10 07:32:30,0.13,6.43,0.00,20.87,25.80,28.87,4.83,27.59,1029.42,2033.99,1675.21,1972.96,2134.61,349.58,353.81,28.88,0000 0000 0000 0000 000000
2015-01-10 07:37:31,0.19,6.44,0.00,20.90,25.79,28.88,4.88,27.66,1029.64,2033.99,1674.42,1972.14,2133.99,349.74,354.49,28.91,0000 0000 0000 0000 000000
2015-01-10 07:42:32,0.17,6.44,0.00,20.92,25.77,28.84,4.92,27.92,1029.77,2033.99,1673.59,1971.71,2133.16,349.80,354.47,28.93,0000 0000 0000 0000 000000
2015-01-10 07:47:33,0.12,6.44,0.00,20.91,25.76,28.83,4.93,27.85,1029.76,2034.00,1672.87,1971.04,2132.59,349.90,354.61,28.96,0000 0000 0000 0000 000000
2015-01-10 07:52:35,0.17,6.45,0.00,20.90,25.75,28.77,4.88,27.82,1029.76,2034.00,1672.05,1970.33,2131.97,349.64,354.47,28.99,0000 0000 0000 0000 000000
2015-01-10 07:57:36,0.14,6.45,0.00,20.91,25.75,28.70,4.92,27.78,1029.75,2034.02,1671.26,1969.97,2131.18,349.17,353.63,29.02,0000 0000 0000 0000 000000
2015-01-10 08:02:37,0.21,6.46,0.00,20.95,25.74,28.66,4.86,27.61,1029.59,2034.02,1670.41,1969.16,2130.65,349.82,354.46,29.05,0000 0000 0000 0000 000000
2015-01-10 08:07:39,0.14,6.46,0.00,20.93,25.72,28.69,4.86,27.67,1029.38,2034.03,1669.59,1968.68,2129.94,349.90,354.17,29.08,0000 0000 0000 0000 000000
2015-01-10 08:12:40,0.13,6.47,0.00,20.91,25.72,28.66,5.01,27.90,1029.31,2034.06,1668.90,1968.02,2129.12,349.93,354.32,29.11,0000 0000 0000 0000 000000
2015-01-10 08:17:41,0.20,6.47,0.00,20.92,25.72,28.65,4.92,27.86,1029.31,2034.07,1667.96,1967.45,2128.59,350.10,354.67,29.14,0000 0000 0000 0000 000000
2015-01-10 08:22:42,0.14,6.48,0.00,20.91,25.72,28.74,4.89,27.89,1029.30,2034.05,1667.04,1966.78,2127.92,349.96,354.63,29.17,0000 0000 0000 0000 000000
2015-01-10 08:27:43,0.23,6.49,0.00,20.90,25.70,28.74,4.90,28.07,1029.14,2034.12,1666.14,1966.03,2127.10,350.12,354.68,29.20,0000 0000 0000 0000 000000
2015-01-10 08:32:45,0.23,6.49,0.00,20.92,25.70,28.68,4.86,28.12,1029.11,2034.22,1665.15,1965.36,2126.47,349.88,354.33,29.23,0000 0000 0000 0000 000000
2015-01-10 08:37:46,0.12,6.50,0.00,20.91,25.70,28.66,4.84,27.95,1029.23,2034.36,1664.48,1964.90,2125.84,349.81,354.46,29.26,0000 0000 0000 0000 000000
2015-01-10 08:42:48,0.23,6.50,0.00,20.87,25.69,28.69,4.83,28.13,1029.08,2034.49,1663.76,1964.09,2125.03,349.61,354.10,29.29,0000 0000 0000 0000 000000
2015-01-10 08:47:49,0.21,6.51,0.00,20.86,25.67,28.78,4.90,27.97,1029.05,2034.77,1662.96,1963.69,2124.35,350.33,354.58,29.32,0000 0000 0000 0000 000000
2015-01-10 08:52:50,0.15,6.51,0.00,20.84,25.67,28.75,4.86,28.07,1028.84,2034.89,1662.07,1963.01,2123.80,349.67,354.04,29.34,0000 0000 0000 0000 000000
2015-01-10 08:57:51,0.22,6.52,0.00,20.83,25.67,28.75,4.91,27.88,1028.99,2034.91,1661.15,1962.26,2123.01,349.76,354.54,29.37,0000 0000 0000 0000 000000
2015-01-10 09:02:52,0.18,6.53,0.00,20.82,25.65,28.75,4.93,28.09,1029.25,2034.94,1660.25,1961.77,2122.17,350.29,354.92,29.40,0000 0000 0000 0000 000000
2015-01-10 09:07:54,0.18,6.53,0.00,20.81,25.65,28.78,4.89,27.92,1029.31,2034.98,1659.43,1961.03,2121.63,349.84,354.56,29.43,0000 0000 0000 0000 000000
2015-01-10 09:12:55,0.18,6.53,0.00,20.75,25.63,28.75,4.86,28.03,1029.30,2034.98,1658.57,1960.31,2120.96,349.71,354.57,29.46,0000 0000 0000 0000 000000
2015-01-10 09:17:56,0.13,6.54,0.00,20.75,25.62,28.76,4.91,27.97,1029.31,2034.99,1657.78,1959.85,2120.12,350.17,354.92,29.49,0000 0000 0000 0000 000000
2015-01-10 09:22:57,0.18,6.55,0.00,20.75,25.61,28.72,4.98,27.95,1029.31,2034.99,1656.92,1959.07,2119.41,350.25,355.11,29.52,0000 0000 0000 0000 000000
2015-01-10 09:27:59,0.17,6.55,0.00,20.74,25.60,28.75,4.98,28.38,1029.31,2034.99,1656.04,1958.48,2118.88,350.19,354.80,29.55,0000 0000 0000 0000 000000
2015-01-10 09:33:00,0.15,6.56,0.00,20.70,25.58,28.72,5.04,28.17,1029.31,2034.99,1655.22,1957.98,2118.08,350.72,355.56,29.58,0000 0000 0000 0000 000000
2015-01-10 09:38:01,0.22,6.56,0.00,20.69,25.57,28.70,4.93,28.25,1029.31,2034.99,1654.31,1957.22,2117.45,349.99,355.04,29.61,0000 0000 0000 0000 000000
2015-01-10 09:43:02,0.15,6.57,0.00,20.66,25.55,28.67,4.90,27.91,1029.29,2034.99,1653.25,1956.67,2116.89,350.11,354.94,29.64,0000 0000 0000 0000 000000
2015-01-10 09:48:03,0.16,6.57,0.00,20.59,25.53,28.67,4.82,28.17,1028.96,2035.01,1652.53,1956.02,2116.08,349.59,354.48,29.67,0000 0000 0000 0000 000000
2015-01-10 09:53:04,0.14,6.58,0.00,20.58,25.52,28.65,4.88,28.13,1028.85,2035.03,1651.96,1955.52,2115.56,349.68,354.47,29.70,0000 0000 0000 0000 000000
2015-01-10 09:58:06,0.12,6.58,0.00,20.55,25.50,28.67,4.93,28.32,1028.82,2035.08,1651.10,1955.00,2114.99,349.96,354.70,29.73,0000 0000 0000 0000 000000
2015-01-10 10:03:07,0.28,6.59,0.00,20.52,25.48,28.65,4.86,28.07,1028.75,2035.31,1650.35,1954.38,2114.29,349.70,354.53,29.75,0000 0000 0000 0000 000000
2015-01-10 10:08:08,0.15,6.59,0.00,20.49,25.46,28.64,4.92,28.08,1028.68,2035.64,1649.74,1953.98,2113.83,350.15,354.79,29.78,0000 0000 0000 0000 000000
2015-01-10 10:13:09,0.24,6.60,0.00,20.47,25.44,28.64,4.88,28.09,1028.70,2035.90,1648.85,1953.23,2113.05,349.98,354.78,29.81,0000 0000 0000 0000 000000
2015-01-10 10:18:10,0.13,6.60,0.00,20.46,25.42,28.59,5.02,28.05,1028.75,2035.94,1648.06,1952.90,2112.49,350.37,355.42,29.84,0000 0000 0000 0000 000000
2015-01-10 10:23:12,0.17,6.61,0.00,20.44,25.40,28.57,4.99,27.76,1028.80,2035.98,1647.50,1952.13,2111.97,350.28,355.14,29.87,0000 0000 0000 0000 000000
2015-01-10 10:28:13,0.10,6.61,0.00,20.43,25.38,28.52,4.89,27.81,1028.76,2035.98,1646.83,1951.90,2111.18,349.80,354.71,29.90,0000 0000 0000 0000 000000
2015-01-10 10:33:14,0.14,6.62,0.00,20.42,25.36,28.50,4.89,27.81,1028.82,2035.99,1646.04,1951.10,2110.98,349.55,354.60,29.93,0000 0000 0000 0000 000000
2015-01-10 10:38:16,0.17,6.62,0.00,20.40,25.34,28.45,4.95,27.98,1028.74,2035.99,1645.30,1950.75,2110.36,349.94,354.88,29.96,0000 0000 0000 0000 000000
2015-01-10 10:43:17,0.15,6.63,0.00,20.38,25.32,28.49,4.82,27.90,1028.41,2035.99,1644.45,1950.03,2109.90,349.45,354.24,29.99,0000 0000 0000 0000 000000
2015-01-10 10:48:19,0.19,6.63,0.00,20.39,25.30,28.38,4.97,28.11,1028.45,2036.00,1643.61,1949.52,2109.10,350.67,355.37,30.02,0000 0000 0000 0000 000000
2015-01-10 10:53:20,0.07,6.63,0.00,20.38,25.28,28.42,4.92,28.10,1028.77,2036.01,1643.01,1949.00,2108.77,350.00,354.75,30.05,0000 0000 0000 0000 000000
2015-01-10 10:58:21,0.20,6.64,0.00,20.39,25.26,28.40,4.90,28.13,1028.76,2036.04,1642.24,1948.47,2108.03,350.13,354.94,30.08,0000 0000 0000 0000 000000
2015-01-10 11:03:22,0.14,6.64,0.00,20.38,25.25,28.37,4.93,28.12,1028.77,2036.08,1641.52,1948.00,2107.42,350.59,355.58,30.11,0000 0000 0000 0000 000000
2015-01-10 11:08:24,0.22,6.65,0.00,20.36,25.23,28.33,4.96,28.32,1028.52,2036.25,1640.79,1947.35,2106.93,349.72,354.60,30.14,0000 0000 0000 0000 000000
2015-01-10 11:13:26,0.19,6.66,0.00,20.34,25.21,28.32,4.88,28.33,1028.38,2036.55,1639.86,1946.91,2106.10,350.31,355.41,30.17,0000 0000 0000 0000 000000
2015-01-10 11:18:27,0.22,6.66,0.00,20.35,25.20,28.26,4.85,28.07,1028.46,2036.87,1639.04,1946.11,2105.66,349.57,354.41,30.19,0000 0000 0000 0000 000000
2015-01-10 11:23:28,0.14,6.67,0.00,20.34,25.18,28.24,4.87,28.25,1028.48,2036.96,1638.31,1945.85,2105.00,349.98,355.02,30.22,0000 0000 0000 0000 000000
2015-01-10 11:28:29,0.20,6.67,0.00,20.30,25.17,28.29,4.86,28.45,1028.38,2036.96,1637.55,1945.06,2104.33,349.16,354.22,30.25,0000 0000 0000 0000 000000
2015-01-10 11:33:30,0.17,6.68,0.00,20.30,25.15,28.25,4.90,28.29,1028.34,2036.98,1636.69,1944.59,2103.79,349.67,354.27,30.28,0000 0000 0000 0000 000000
2015-01-10 11:38:31,0.10,6.68,0.00,20.30,25.14,28.25,4.87,28.43,1028.50,2036.99,1635.94,1944.00,2103.03,349.80,354.86,30.31,0000 0000 0000 0000 000000
2015-01-10 11:43:33,0.22,6.69,0.00,20.26,25.12,28.23,4.83,28.21,1028.70,2036.99,1635.08,1943.29,2102.35,349.24,354.33,30.34,0000 0000 0000 0000 000000
2015-01-10 11:48:34,0.16,6.69,0.00,20.27,25.11,28.21,4.92,28.57,1028.41,2036.99,1634.14,1942.73,2101.80,349.66,354.67,30.37,0000 0000 0000 0000 000000
2015-01-10 11:53:35,0.16,6.70,0.00,20.26,25.10,28.19,4.93,28.54,1028.48,2036.99,1633.45,1942.03,2101.04,350.22,355.43,30.40,0000 0000 0000 0000 000000
2015-01-10 11:58:36,0.21,6.70,0.00,20.24,25.07,28.14,4.91,28.38,1028.66,2037.01,1632.53,1941.49,2100.33,350.14,355.16,30.43,0000 0000 0000 0000 000000
2015-01-10 12:03:38,0.09,6.71,0.00,20.22,25.07,28.18,5.01,28.22,1028.63,2037.01,1631.76,1940.98,2099.87,350.92,355.77,30.46,0000 0000 0000 0000 000000
2015-01-10 12:08:39,0.20,6.71,0.00,20.22,25.05,28.14,4.90,28.13,1028.40,2037.03,1630.98,1940.20,2099.06,349.91,354.97,30.49,0000 0000 0000 0000 000000
2015-01-10 12:13:40,0.18,6.72,0.00,20.21,25.03,28.14,4.89,28.00,1028.36,2037.15,1630.20,1939.89,2098.50,350.01,354.98,30.52,0000 0000 0000 0000 000000
2015-01-10 12:18:42,0.21,6.72,0.00,20.21,25.02,28.10,4.89,28.28,1028.34,2037.23,1629.33,1939.08,2097.91,349.46,354.49,30.55,0000 0000 0000 0000 000000
2015-01-10 12:23:43,0.26,6.73,0.00,20.21,25.00,28.08,4.84,28.54,1027.97,2037.61,1628.53,1938.62,2097.10,349.13,354.06,30.57,0000 0000 0000 0000 000000
2015-01-10 12:28:44,0.11,6.74,0.00,20.17,24.99,28.10,4.85,28.44,1027.87,2037.63,1627.85,1938.00,2096.46,349.29,354.07,30.60,0000 0000 0000 0000 000000
2015-01-10 12:33:45,0.23,6.74,0.00,20.16,24.97,28.05,4.86,28.16,1027.88,2037.85,1626.97,1937.32,2095.91,350.52,355.41,30.63,0000 0000 0000 0000 000000
2015-01-10 12:38:47,0.17,6.75,0.00,20.17,24.97,28.03,4.98,28.25,1028.09,2037.93,1626.09,1936.88,2095.08,350.37,355.50,30.66,0000 0000 0000 0000 000000
2015-01-10 12:43:48,0.21,6.75,0.00,20.17,24.95,28.02,4.85,28.38,1028.15,2037.94,1625.22,1936.07,2094.44,349.36,354.61,30.69,0000 0000 0000 0000 000000
2015-01-10 12:48:49,0.06,6.76,0.00,20.18,24.94,28.01,4.97,28.33,1028.32,2037.98,1624.80,1935.84,2093.97,350.19,355.39,30.72,0000 0000 0000 0000 000000
2015-01-10 12:53:50,0.19,6.76,0.00,20.18,24.92,27.98,4.94,28.53,1028.32,2037.98,1623.98,1935.05,2093.19,350.24,354.88,30.75,0000 0000 0000 0000 000000
2015-01-10 12:58:51,0.21,6.77,0.00,20.14,24.91,27.94,4.93,28.22,1028.17,2037.99,1623.08,1934.40,2092.57,350.17,355.32,30.78,0000 0000 0000 0000 000000